RH
5 5 5 7 11 12 11 9 8 7 5 4 3 3 3 4 11 20 29 29 23 26 30 38 48 49 53 58 56 57 59 62 64 61 63 71 81 86 84 81 79 74 64 63 59 37 26 29 29 27 22 13 9 9 10 11 11 6 9 16 11 5 4 4 7 16 22 20 18 17 16 16 16 17 17 18 17 16 16 15 17 20 21 21 19 18
5 5 5 7 10 12 13 12 11 9 7 6 4 4 3 2 6 11 21 25 23 31 40 43 48 46 48 54 57 62 65 67 69 67 63 66 73 77 78 79 79 76 67 64 61 42 29 30 32 31 27 18 10 9 9 11 9 5 10 15 9 4 4 5 8 15 19 16 15 15 14 14 15 14 14 14 14 13 12 12 15 18 19 18 17 18
6 6 6 6 8 9 12 13 12 10 8 7 5 4 4 2 4 7 17 23 21 29 39 42 48 46 42 47 55 62 65 69 74 73 69 64 63 66 70 73 75 77 71 68 69 53 35 32 35 34 31 22 14 9 9 11 8 5 11 14 7 4 4 5 8 14 16 12 12 13 12 12 12 11 10 10 11 10 9 10 13 16 15 16 16 17
7 8 8 7 6 7 9 12 13 13 10 9 7 5 4 3 3 8 19 22 15 20 30 36 41 41 35 37 50 59 61 67 73 72 69 64 58 57 58 61 69 74 71 68 72 65 45 36 38 37 34 26 18 12 9 11 9 5 10 11 6 4 4 5 9 13 14 11 11 11 10 10 9 9 8 8 9 9 9 10 12 14 15 17 17 17
9 10 10 8 7 6 6 9 12 13 12 11 9 7 6 4 4 12 26 27 15 12 19 26 32 33 26 26 43 56 58 65 72 70 68 66 61 53 52 63 71 72 70 69 74 72 55 43 42 38 34 27 20 15 10 10 10 6 8 8 4 3 4 6 9 12 13 12 11 11 11 11 10 8 8 7 7 7 8 10 11 13 18 20 20 21
10 10 9 8 8 7 6 6 8 11 13 12 11 9 6 7 10 18 29 28 17 10 13 18 24 27 21 19 31 42 48 62 71 69 64 63 63 55 56 72 75 69 68 69 74 76 61 48 43 35 30 27 23 17 10 10 10 6 7 6 3 3 4 6 10 10 11 12 11 11 12 12 10 8 6 7 7 7 8 9 11 15 19 20 21 24
11 10 9 9 9 8 7 6 6 8 11 11 13 12 8 15 25 27 27 25 19 14 13 19 31 41 36 25 26 29 38 56 67 66 61 61 63 57 56 68 71 66 66 67 73 79 69 55 44 34 31 27 22 19 12 9 10 7 6 6 3 3 4 6 9 9 9 11 10 10 10 8 7 6 6 7 8 7 7 8 10 14 18 19 18 20
12 11 10 10 9 9 8 7 7 7 7 11 17 14 10 25 39 33 25 25 23 17 13 22 46 66 61 40 31 32 38 50 58 60 57 56 63 60 54 60 66 64 63 68 75 80 78 69 52 38 34 28 20 18 15 10 10 9 6 5 3 3 4 7 8 8 8 9 9 8 7 6 6 5 6 7 7 7 7 7 9 12 15 16 17 19
12 12 11 10 9 9 9 9 8 7 6 12 20 17 11 28 47 41 28 26 25 21 16 18 35 59 63 46 34 29 30 41 52 55 53 54 63 67 60 57 60 59 58 68 78 78 79 76 63 48 41 33 24 18 17 13 10 9 7 5 4 3 4 6 7 6 6 7 8 7 6 6 6 5 6 8 7 7 7 7 8 10 11 13 17 21
11 12 12 11 10 9 9 9 9 7 7 12 19 20 13 23 47 48 34 31 30 25 22 15 13 24 38 41 32 19 17 32 46 50 50 53 60 69 71 65 59 55 55 67 78 78 77 74 64 56 49 44 35 22 16 13 10 8 7 5 4 3 4 6 6 5 5 6 7 7 7 6 6 5 6 8 8 7 7 6 7 8 9 11 15 20
10 11 12 12 11 11 10 9 9 8 8 10 13 19 16 20 43 55 44 38 34 25 22 22 15 10 23 45 40 22 25 38 47 49 49 53 60 67 75 76 68 59 56 67 77 77 78 75 66 59 54 53 50 35 19 12 11 9 8 6 4 4 4 4 5 5 4 5 7 7 7 6 6 5 6 8 8 8 8 7 6 7 8 10 12 15
8 9 11 12 12 12 11 10 9 9 9 10 9 14 17 17 32 49 48 41 33 23 21 29 29 17 23 50 50 40 49 47 38 43 48 54 61 66 74 78 75 67 59 63 73 75 74 75 74 69 62 57 57 50 31 16 12 10 9 8 5 4 4 4 5 4 4 5 6 7 7 6 5 5 6 7 8 8 8 7 7 7 7 8 10 11
7 8 10 13 12 11 12 11 10 9 9 10 9 10 15 17 22 33 37 34 26 21 24 34 38 23 16 32 38 42 55 44 27 32 40 43 49 57 67 70 70 70 63 60 66 72 72 72 77 79 75 67 64 62 45 23 14 11 9 9 7 5 4 4 4 4 4 5 6 7 7 6 5 5 5 6 7 7 7 7 7 7 7 7 8 9
7 7 9 11 10 10 12 11 11 11 9 10 10 9 11 14 18 22 24 25 20 19 27 37 41 34 20 16 15 22 34 30 25 36 43 45 48 54 60 60 62 67 66 62 59 61 67 69 73 79 79 73 70 69 56 33 18 12 9 9 9 7 5 4 5 4 4 5 6 7 7 6 5 5 5 5 6 7 7 7 6 6 7 7 7 7
7 8 10 9 8 9 10 11 11 11 10 9 10 10 10 11 14 18 19 21 19 18 28 38 44 46 38 25 15 15 22 21 25 41 50 48 48 53 55 51 51 56 63 67 62 58 63 67 70 76 76 74 72 69 59 43 27 15 9 9 9 9 6 4 4 4 4 5 6 6 6 6 5 5 5 5 6 7 8 7 6 6 6 6 6 6
6 8 12 10 8 8 9 9 9 10 13 12 10 10 11 11 11 14 17 21 20 19 27 35 42 47 47 41 29 22 26 26 26 39 47 40 31 34 39 36 38 49 61 69 69 66 65 65 69 72 73 73 72 68 61 53 41 24 12 9 8 9 8 5 4 4 4 5 6 6 6 6 6 5 5 5 5 7 8 7 6 5 5 5 5 5
7 9 12 13 11 9 8 8 8 10 15 14 11 11 11 11 11 11 14 17 18 20 25 29 35 41 44 46 40 30 29 25 23 30 37 34 24 18 20 19 21 38 58 68 70 71 69 68 72 74 73 73 71 70 67 61 55 39 19 10 8 8 8 7 5 4 4 5 6 5 5 6 6 5 5 5 5 6 7 8 7 5 4 4 5 5
9 9 12 16 19 16 10 9 12 14 16 16 13 12 12 12 12 11 12 14 14 17 20 22 30 38 42 45 42 36 30 19 13 18 21 22 19 12 10 9 8 21 47 63 65 66 66 69 75 75 73 75 74 73 71 64 59 47 25 12 8 7 8 8 6 4 4 5 6 6 5 5 5 5 6 6 5 6 7 8 7 6 5 4 4 4
11 11 15 18 26 30 19 13 22 25 20 20 19 19 19 17 15 14 13 14 12 12 15 16 21 30 37 37 32 33 33 19 12 14 13 12 12 8 5 6 7 12 34 57 64 62 63 68 76 76 73 77 78 76 71 61 53 42 24 13 9 7 8 8 7 5 4 5 5 6 5 5 6 5 5 6 6 6 6 7 8 7 5 4 4 4
13 13 17 20 30 41 32 24 37 41 30 29 31 31 30 24 19 18 16 16 15 12 11 13 16 21 27 28 27 32 34 24 15 13 12 11 10 9 6 6 8 7 21 52 70 69 66 69 76 78 76 78 80 81 76 64 53 42 25 13 9 8 8 7 7 6 5 4 5 5 5 5 6 5 5 6 6 6 6 7 8 8 7 5 4 4
16 15 19 23 27 44 54 47 44 47 45 43 40 38 41 37 27 20 18 18 21 19 14 13 17 16 16 22 27 31 32 25 16 13 14 13 10 10 8 6 8 5 11 39 63 70 69 70 74 78 79 79 80 82 79 68 59 48 31 17 11 9 8 8 8 7 6 5 4 4 5 5 5 5 4 5 6 6 6 6 7 7 7 6 5 5
16 17 24 32 30 42 70 68 46 44 54 55 48 41 44 46 36 27 24 21 22 23 19 18 18 14 10 13 16 22 24 20 16 18 20 19 17 16 12 10 12 10 8 19 36 54 65 64 65 73 78 79 79 79 77 71 62 50 36 25 17 11 9 8 8 8 8 6 5 4 4 5 5 5 4 4 5 6 7 6 6 7 7 7 6 5
13 14 25 45 46 43 63 72 57 50 54 60 61 52 46 47 42 35 30 24 21 21 21 22 20 14 12 11 10 14 18 17 21 25 21 17 20 24 18 13 16 19 20 16 13 31 54 54 51 63 75 79 79 77 76 73 65 53 42 33 22 14 12 10 8 9 9 8 6 5 4 4 5 5 4 4 4 6 7 7 7 6 7 7 7 6
14 12 17 45 63 56 60 72 69 55 49 53 58 51 50 53 48 41 36 28 24 23 24 27 23 16 15 15 14 17 22 28 34 32 24 18 19 25 21 13 16 24 28 23 12 20 38 38 35 52 69 77 79 75 74 76 71 59 49 40 28 17 12 11 8 8 9 9 8 6 5 5 5 5 4 4 4 5 7 8 7 7 7 6 6 6
17 15 12 31 62 71 65 66 66 55 46 48 47 41 48 58 54 48 46 38 31 29 26 25 26 24 20 18 19 24 30 38 41 34 31 29 23 24 25 18 20 26 26 22 16 15 23 32 46 66 74 76 79 77 75 80 78 66 54 50 41 25 11 9 9 7 7 9 10 8 7 6 5 5 5 4 3 4 5 7 8 7 7 7 6 6
13 17 14 19 49 75 73 64 63 58 49 49 49 42 46 61 64 56 51 47 42 38 31 26 27 25 22 22 23 29 39 49 48 40 38 41 35 28 27 22 20 24 24 22 15 8 14 32 56 78 85 82 83 80 76 81 85 76 63 57 54 41 21 9 6 7 7 8 9 10 9 8 7 6 5 4 4 3 3 5 7 8 7 7 6 6
8 12 14 13 31 63 77 72 67 64 56 51 55 52 49 60 70 64 54 50 49 48 40 31 29 26 25 27 26 31 47 55 50 39 34 43 45 35 28 25 22 20 21 22 18 17 31 46 54 68 84 87 84 80 76 80 90 90 78 67 63 58 45 26 10 5 7 8 8 10 10 10 9 8 7 5 4 4 3 3 5 7 8 8 7 6
6 7 10 11 15 38 68 81 77 71 66 57 55 58 56 57 63 64 59 51 49 56 50 34 30 32 28 26 25 29 45 57 53 45 40 47 52 41 30 28 29 29 26 25 21 22 45 68 64 60 76 87 85 79 74 78 90 95 89 79 71 66 64 54 32 11 5 7 8 9 10 11 10 10 9 8 5 3 3 3 3 4 6 7 7 7
7 5 6 8 8 16 44 76 86 80 74 69 63 62 64 63 60 61 65 60 52 57 55 37 33 37 30 26 24 20 33 55 65 62 57 56 56 48 36 32 37 40 38 38 33 20 30 62 68 54 63 81 84 76 69 73 81 85 84 81 74 68 70 70 55 28 10 6 7 8 9 10 10 10 10 9 8 5 3 3 3 3 4 6 7 7
6 6 5 5 6 6 17 46 76 84 80 78 75 71 70 72 69 64 69 75 67 61 60 48 40 42 35 29 26 20 24 43 62 71 67 59 57 55 45 38 40 43 41 40 38 24 17 39 61 59 56 67 75 71 65 66 71 74 77 75 69 66 69 69 62 45 27 17 13 10 9 9 9 10 10 9 9 7 5 3 3 3 3 4 5 7
6 5 6 5 5 6 4 13 41 70 84 85 82 81 80 78 76 67 68 79 79 68 63 57 51 49 43 34 28 25 22 21 35 61 66 54 56 60 50 41 41 42 41 37 37 33 20 18 40 57 56 53 58 61 61 62 66 71 74 71 65 64 68 66 59 50 41 34 27 17 10 8 8 9 10 10 9 9 7 4 3 3 3 3 4 5
6 5 6 5 4 5 6 3 9 33 65 85 87 86 85 85 83 73 67 77 86 76 63 60 62 60 52 43 32 28 29 23 28 55 62 50 56 64 52 45 48 48 47 45 43 42 31 15 18 37 49 47 41 41 46 52 60 69 74 73 68 65 66 66 60 54 47 39 33 24 15 10 8 8 8 9 10 9 8 6 4 3 3 3 3 3
7 6 5 6 5 4 5 6 4 6 26 60 85 88 84 86 88 81 70 72 84 85 74 69 73 70 59 49 37 33 44 50 52 65 66 53 56 64 56 49 51 53 54 55 54 52 45 30 17 18 30 38 33 27 28 35 49 63 69 71 71 69 66 63 60 58 54 45 36 29 22 15 10 7 7 8 9 9 8 7 6 4 3 3 3 3
11 11 9 7 7 6 5 5 6 4 4 22 55 78 84 89 91 86 77 72 77 86 85 77 75 72 63 53 44 44 57 68 71 74 71 62 58 60 59 57 55 56 58 59 60 60 53 41 29 21 22 27 28 23 19 25 40 55 63 69 74 73 69 68 67 63 58 54 48 39 30 21 13 8 6 7 8 9 9 8 7 6 5 3 3 3
16 16 16 13 10 10 11 8 5 6 4 4 18 40 64 85 95 93 85 76 72 78 86 84 77 73 69 58 46 48 60 72 79 80 75 68 65 62 59 59 60 60 58 56 55 53 48 39 32 27 24 23 23 21 18 23 36 50 63 72 77 74 70 75 84 80 70 64 58 53 44 32 22 15 9 7 7 8 8 8 8 7 6 5 3 3
21 20 19 20 18 15 14 13 7 5 6 6 4 10 27 54 82 97 95 82 70 67 76 86 81 74 73 64 49 46 59 71 78 83 80 69 66 70 66 60 61 61 55 53 53 51 48 45 40 35 29 23 21 20 18 20 29 43 56 63 65 67 69 75 83 88 86 75 63 59 57 47 36 28 17 8 7 8 8 9 9 8 7 6 5 4
29 29 27 26 25 22 20 17 14 9 8 9 8 6 8 18 45 78 96 94 80 65 66 81 87 77 72 71 58 45 54 71 77 80 84 73 63 70 74 66 62 62 57 54 56 54 49 49 52 51 42 32 26 25 26 27 29 36 49 57 55 58 70 80 80 80 84 77 66 64 65 57 49 43 31 16 7 6 8 9 10 10 8 7 7 6
34 36 38 35 30 29 28 24 20 15 13 15 16 15 10 6 16 44 75 93 93 77 62 69 87 87 74 71 68 52 48 66 77 76 79 79 67 62 71 75 69 65 63 61 60 58 49 44 50 55 54 49 42 37 41 44 35 31 44 56 54 52 65 82 87 82 78 73 68 68 69 64 58 54 47 33 16 7 7 10 10 10 9 7 7 8
36 37 42 44 40 37 36 33 28 23 20 22 24 23 20 14 11 18 39 70 92 92 73 62 72 86 81 71 70 63 51 55 72 77 76 80 77 62 62 79 85 77 74 71 65 58 51 48 56 61 61 63 59 51 51 52 44 41 49 56 57 59 66 78 86 86 80 76 72 68 69 70 65 60 56 50 34 15 7 9 10 10 10 9 7 8
38 39 43 48 49 47 44 39 34 31 30 30 30 29 26 23 20 14 17 39 70 89 89 73 62 69 79 78 74 71 60 52 64 79 78 78 83 70 55 70 93 94 88 81 71 61 52 53 67 75 72 71 68 60 57 55 49 46 48 51 61 75 80 79 81 81 78 78 78 73 72 73 69 63 59 58 51 31 11 7 10 9 10 10 8 8
45 44 45 52 56 55 50 45 43 42 41 40 40 39 33 28 27 19 11 18 40 65 83 87 75 62 63 73 80 80 72 58 56 72 81 79 82 76 63 67 86 96 97 92 83 72 57 48 57 72 79 80 76 68 64 61 50 42 43 50 61 78 88 85 79 73 68 72 78 79 81 82 76 68 62 60 56 43 22 10 9 9 10 10 9 9
58 54 53 58 64 65 60 53 51 51 49 48 48 48 43 35 28 22 14 11 18 37 57 76 85 77 62 63 76 85 84 71 56 58 72 81 83 78 72 75 83 88 97 101 97 88 70 49 43 50 61 75 80 69 61 59 51 43 46 52 51 59 77 83 75 63 56 62 75 78 80 87 87 77 70 66 61 51 34 18 10 8 9 10 10 10
62 62 63 65 68 70 65 56 51 52 54 55 55 53 48 40 29 22 20 16 12 18 32 49 69 82 79 73 75 82 86 82 68 56 57 71 85 83 75 77 82 85 91 99 102 98 84 66 54 44 42 59 74 69 60 60 57 52 53 52 42 40 55 69 70 61 52 56 71 77 76 84 90 85 78 76 73 65 50 31 18 11 8 9 10 11
67 66 67 69 70 68 61 54 47 45 47 50 51 49 44 38 31 24 22 21 16 12 17 26 39 58 78 87 85 82 83 81 75 66 57 60 76 85 82 79 80 82 86 91 96 101 96 86 74 57 44 51 65 72 72 64 54 52 55 59 60 57 58 67 73 70 61 60 71 82 85 86 88 85 83 85 86 81 65 46 31 21 11 8 8 9
68 73 72 71 69 63 59 54 45 36 37 42 45 46 44 39 35 30 24 22 20 15 13 16 19 28 49 75 88 89 86 80 72 68 64 60 66 77 83 85 84 82 84 86 88 94 99 100 92 72 55 54 62 70 71 59 48 45 40 43 64 79 81 83 86 80 73 71 76 87 94 91 86 83 84 89 91 85 72 56 44 34 23 15 11 8
48 65 75 77 73 66 63 58 46 35 34 37 39 44 49 49 45 40 33 26 22 19 14 13 15 15 21 41 65 80 86 85 76 66 62 60 63 69 76 82 86 86 87 87 84 84 89 99 102 85 64 57 56 57 59 59 60 56 35 23 49 82 94 94 90 84 81 80 81 89 96 94 89 85 85 91 92 84 73 64 56 47 35 26 21 17
26 38 52 63 72 75 74 67 56 45 39 36 36 38 44 49 49 44 38 33 28 24 19 13 14 16 13 17 33 50 63 74 78 75 68 61 58 62 68 74 79 84 90 93 88 81 80 89 99 96 79 61 51 52 57 56 54 52 37 24 39 72 92 92 79 75 84 89 88 92 95 91 89 89 87 89 91 85 78 76 73 63 47 35 31 29
19 20 26 34 45 60 73 76 73 66 57 48 44 41 38 41 45 42 37 34 32 30 27 20 14 15 15 13 16 24 32 41 50 61 69 66 57 54 59 67 72 74 81 91 92 87 85 85 89 95 94 82 71 65 58 45 41 50 52 43 42 56 76 85 75 69 83 95 91 88 90 89 89 90 86 83 86 87 87 89 86 73 56 46 42 39
18 17 18 19 20 29 46 62 72 77 75 69 63 58 50 43 42 41 38 36 34 32 33 30 22 16 15 14 14 15 17 19 19 24 36 48 55 54 49 55 65 68 71 80 88 92 94 92 88 90 95 96 94 85 67 50 50 62 66 59 56 59 70 82 77 63 71 91 97 93 92 90 87 85 82 79 82 87 90 91 86 75 65 58 53 49
20 18 18 18 17 17 21 31 43 56 65 70 71 73 71 64 57 52 45 40 37 35 34 35 32 26 19 16 15 15 14 15 14 11 8 15 36 53 51 45 51 61 66 72 79 86 93 96 95 93 95 98 99 96 88 76 68 71 71 64 61 67 79 88 79 56 52 70 84 89 90 89 86 84 81 77 78 82 84 85 83 78 73 67 60 57
24 22 21 19 17 17 16 15 19 25 31 39 47 55 63 68 72 72 65 53 44 38 34 33 34 33 29 23 19 17 15 14 13 14 10 5 12 34 50 50 45 49 58 67 74 79 84 90 94 95 97 99 96 94 96 93 83 80 82 73 62 65 77 82 73 58 52 60 69 75 81 86 88 87 82 77 77 78 78 78 78 76 71 67 65 66
Wind_Speed
29 28 26 23 21 22 23 23 22 24 25 25 26 26 26 25 25 25 24 23 22 20 19 20 20 19 17 16 14 12 11 9 6 7 9 10 10 8 8 8 8 8 7 7 8 8 8 7 7 7 7 8 12 14 12 12 12 13 19 21 22 24 23 20 19 17 16 15 14 14 13 13 13 12 12 11 11 11 10 9 8 8 8 8 8 9
29 27 24 23 25 26 26 25 26 26 26 26 25 24 23 23 25 26 25 24 22 21 21 22 21 21 20 19 17 14 12 10 6 5 7 10 11 11 10 9 9 7 5 5 7 8 8 7 6 6 7 7 11 14 13 13 12 14 20 22 22 25 24 22 21 19 17 16 15 15 15 14 14 13 12 11 11 11 10 8 8 8 8 8 8 9
27 23 22 26 28 28 27 27 27 27 27 27 25 22 20 21 25 27 26 26 24 22 24 24 24 24 23 22 20 17 15 12 7 5 7 9 12 13 12 11 10 8 5 6 8 8 9 8 7 7 7 8 10 13 13 12 12 15 21 22 23 26 25 23 22 19 17 14 13 13 14 14 13 13 12 11 10 10 9 8 8 8 8 8 8 9
23 20 22 27 28 29 29 28 28 28 27 26 23 21 19 22 26 27 27 27 25 23 25 27 27 27 26 24 22 19 17 14 9 6 6 9 12 14 14 12 11 9 7 8 10 10 9 9 8 7 8 8 9 11 12 12 11 15 20 22 25 27 25 23 22 19 16 13 12 12 12 12 12 12 12 11 10 10 10 9 9 8 8 8 8 9
22 22 26 27 28 29 30 30 30 29 27 25 21 19 20 23 25 26 28 28 26 24 25 27 28 27 25 24 23 19 17 14 9 7 8 9 11 13 13 11 11 10 9 9 10 11 10 10 10 9 9 8 9 11 13 13 12 15 20 23 26 29 26 24 21 19 16 13 11 11 11 10 11 11 12 12 11 10 10 10 9 9 8 9 9 10
26 27 28 27 27 28 29 30 30 29 27 25 21 19 21 24 25 28 30 30 28 26 25 27 27 25 24 24 24 22 19 15 10 9 9 10 10 11 12 12 12 11 10 10 10 11 12 12 11 9 8 8 9 11 14 15 13 14 19 23 27 29 27 24 22 19 17 15 14 13 14 14 14 13 13 12 11 10 10 10 10 9 9 9 10 10
30 30 28 27 27 27 27 28 29 30 29 26 22 21 24 27 30 32 32 32 30 28 28 28 26 23 22 23 23 22 20 18 13 11 10 10 10 11 12 13 13 11 9 10 11 12 12 12 11 9 8 9 10 12 14 15 13 13 16 21 26 28 27 24 22 20 18 17 17 17 17 17 16 15 13 12 11 10 10 10 11 10 10 10 10 10
33 33 30 28 28 27 27 27 28 29 29 26 24 25 28 32 35 35 34 33 31 29 29 29 27 25 23 22 22 22 21 19 15 12 11 10 10 11 12 15 15 12 10 10 12 14 13 12 11 10 9 10 11 11 13 14 14 14 15 20 25 28 26 24 23 21 19 18 18 18 17 16 15 14 14 13 13 12 11 11 11 11 11 10 11 10
34 34 32 31 30 28 28 27 28 29 29 27 27 29 30 35 38 37 36 34 33 30 29 30 30 26 23 23 25 24 22 20 16 12 10 10 11 12 12 15 17 15 12 11 13 15 16 14 13 12 11 10 10 10 12 15 16 15 16 19 24 27 26 24 23 21 21 19 19 18 16 15 15 15 14 13 13 13 12 12 12 12 11 11 11 10
34 34 33 32 31 29 29 29 28 28 28 29 32 32 32 36 41 39 37 36 34 32 29 29 29 27 25 25 25 22 20 16 13 12 11 11 12 12 12 13 15 16 14 12 13 15 17 17 16 15 14 11 9 10 12 14 16 16 15 18 23 26 25 24 23 21 21 20 18 16 15 15 15 16 15 14 13 13 13 13 13 13 12 11 11 10
33 33 33 32 32 31 31 30 29 28 28 30 34 34 34 38 42 42 40 38 37 34 30 28 27 26 25 26 24 19 14 11 10 11 12 11 12 12 12 12 13 15 16 15 15 16 17 17 17 15 14 12 10 10 11 12 14 16 15 16 21 25 26 24 23 21 20 19 17 16 15 15 16 16 16 16 15 14 13 13 13 13 13 12 11 11
33 32 32 32 33 33 32 32 31 29 29 30 33 36 37 38 42 44 42 41 39 35 31 30 29 28 26 25 21 15 14 13 10 9 11 12 13 14 14 13 13 15 17 17 17 16 16 14 14 13 13 12 10 8 9 10 13 15 16 17 19 23 25 24 23 22 20 19 17 15 15 15 16 16 16 16 16 15 14 14 14 14 14 13 12 12
34 33 32 32 33 33 33 33 33 32 32 31 32 35 38 40 42 44 44 42 39 34 32 32 32 32 29 26 22 18 17 14 8 7 11 13 14 15 16 16 15 16 17 18 19 17 15 13 13 12 12 12 10 8 9 11 12 15 17 18 18 21 24 25 24 22 20 19 17 16 15 15 15 16 16 16 15 14 14 14 14 14 14 14 13 12
36 34 33 33 34 34 34 34 34 35 35 33 33 35 38 40 41 43 43 42 39 34 33 34 34 34 31 27 23 21 20 16 12 10 11 12 13 15 17 18 17 18 18 18 19 18 16 15 14 14 14 13 12 11 11 11 12 14 17 19 18 19 23 25 24 23 21 20 19 17 16 16 15 15 16 15 15 14 13 13 14 14 13 13 12 11
35 34 34 35 35 35 35 35 35 36 35 35 35 35 36 39 40 41 41 41 38 35 36 38 37 37 34 27 22 21 23 21 17 15 13 13 14 15 16 14 14 16 18 19 18 18 18 17 16 15 15 14 14 13 13 13 13 14 16 19 20 20 21 24 25 23 22 21 20 18 17 16 15 15 15 15 15 14 13 13 13 13 13 13 12 11
34 34 35 36 36 36 36 36 36 36 35 36 37 36 37 38 39 40 41 41 39 38 40 41 40 40 37 30 25 24 25 24 21 20 19 18 19 20 17 12 9 12 16 18 18 18 18 18 17 16 15 15 15 15 14 14 14 14 16 18 21 21 22 24 25 24 23 22 21 19 18 17 16 15 15 15 15 14 14 14 13 13 13 13 12 12
33 34 35 35 36 37 37 36 36 36 36 37 38 38 39 38 38 38 40 41 42 42 44 43 42 41 38 34 32 29 27 27 25 26 26 23 23 24 23 18 13 10 12 16 18 19 19 19 18 17 16 15 14 14 14 14 14 15 16 19 21 23 23 23 25 25 25 23 21 20 19 18 17 15 15 15 15 15 15 15 15 14 13 13 12 12
31 32 34 35 35 37 38 37 36 35 36 38 39 38 38 37 38 38 39 40 42 43 44 43 43 43 41 39 37 34 32 29 28 29 29 27 26 26 25 22 19 13 11 14 18 20 21 20 19 18 17 15 15 15 15 15 16 16 17 19 21 23 24 24 25 26 26 25 23 21 19 19 18 17 16 16 16 16 16 15 15 15 14 14 14 13
30 31 32 34 35 36 38 37 35 35 36 37 37 37 36 37 38 38 38 39 40 41 42 41 42 44 45 42 39 38 36 33 31 31 29 28 28 27 24 22 21 18 15 14 15 17 20 20 19 18 17 16 16 16 17 17 17 16 15 17 21 23 25 26 27 28 28 27 25 23 21 20 19 18 17 17 16 16 16 16 15 16 16 16 15 15
29 30 31 33 35 35 37 37 35 35 36 36 36 37 36 38 39 39 38 39 38 39 39 38 38 41 44 44 43 42 41 38 35 33 30 30 30 28 25 24 22 20 17 15 12 13 17 19 19 19 18 18 18 18 18 18 16 15 14 15 19 23 25 27 27 28 28 28 27 26 24 22 21 20 18 17 17 16 16 16 16 16 17 17 16 16
28 30 31 32 34 36 37 37 36 36 36 36 37 38 37 38 40 40 40 40 39 38 37 36 35 38 42 45 45 45 43 40 38 34 31 30 30 29 27 25 23 20 19 18 15 12 15 17 19 20 20 20 21 21 20 19 17 15 13 14 17 21 23 24 25 26 27 28 29 27 26 24 22 21 20 18 17 17 17 16 16 17 17 17 17 16
27 29 30 31 33 37 39 39 37 37 37 38 39 40 39 39 40 40 40 41 41 40 38 35 35 36 38 42 43 44 43 40 37 34 32 31 30 29 27 25 23 21 20 21 20 17 16 17 17 20 22 23 23 22 21 19 18 16 13 13 15 18 20 22 25 26 27 28 29 28 27 26 25 23 21 20 19 18 18 17 17 17 16 16 17 16
25 26 28 30 33 36 39 39 39 38 39 40 40 40 40 40 40 40 41 42 42 41 39 36 35 37 37 38 38 39 39 37 36 36 35 34 31 28 26 25 25 24 23 23 23 22 20 18 17 19 23 24 24 22 21 20 18 16 14 13 14 17 19 21 24 27 28 29 29 29 29 28 27 25 23 21 20 20 19 19 18 18 17 17 17 17
26 27 28 31 34 36 38 40 40 39 39 41 42 42 42 41 41 41 41 42 42 42 40 38 38 39 38 37 36 35 35 37 38 38 37 36 33 29 27 26 27 28 28 26 25 25 25 23 20 20 23 25 25 24 22 21 19 18 16 14 13 16 20 23 25 28 29 29 29 31 31 30 29 27 25 23 22 22 21 21 20 19 19 19 18 17
29 29 30 33 36 38 39 40 40 39 39 41 42 43 44 42 41 41 41 42 42 42 41 40 41 41 39 38 37 35 36 40 40 39 37 35 33 31 30 30 31 32 32 30 29 30 30 26 22 21 23 26 26 25 23 22 21 19 17 15 14 16 20 23 26 28 29 30 30 30 30 30 30 28 27 25 24 24 23 22 21 20 20 20 19 18
29 30 32 35 40 42 42 42 41 40 40 41 41 43 45 45 43 42 43 43 42 43 43 42 44 43 40 40 41 38 39 42 41 38 36 32 31 32 32 33 34 35 34 33 32 34 34 32 28 26 27 28 29 28 26 24 23 22 20 18 16 16 18 21 24 27 29 30 30 30 29 29 29 28 28 28 27 26 26 25 23 21 21 21 21 20
29 30 31 34 41 45 46 45 44 43 43 44 43 44 46 47 46 44 44 44 44 43 44 45 46 45 43 43 43 41 41 42 41 38 36 32 31 33 34 34 35 36 36 35 34 34 35 35 33 31 31 33 34 33 30 28 27 26 24 22 20 19 19 20 23 25 28 30 30 30 29 29 28 29 29 29 29 29 28 27 26 24 22 22 22 22
29 30 30 32 38 44 48 48 47 47 47 47 46 46 47 48 47 46 45 45 46 45 45 46 47 46 46 46 46 43 41 41 38 36 36 35 33 33 34 35 36 36 36 36 35 36 36 36 34 32 32 35 37 36 35 34 33 31 29 27 25 24 22 21 22 24 26 28 29 29 29 29 29 30 30 30 31 31 31 29 28 27 25 24 23 23
32 32 32 33 35 39 47 51 51 50 49 48 48 48 49 49 48 48 48 48 48 47 47 47 47 47 48 48 48 46 43 41 37 34 36 38 36 35 34 35 36 37 37 36 36 37 39 39 38 35 33 34 36 36 36 36 36 35 34 32 31 28 26 25 25 25 26 27 28 28 29 30 31 31 32 32 32 32 32 31 30 29 28 26 25 24
35 36 36 37 37 37 42 50 54 53 51 50 50 50 51 51 50 50 51 51 50 49 48 47 47 47 48 48 48 48 47 45 41 37 37 39 39 38 36 35 37 38 38 37 37 38 40 42 42 40 37 35 35 36 36 36 37 37 36 35 34 32 30 29 28 27 27 27 27 28 30 31 32 32 33 33 33 32 33 33 32 31 30 28 27 26
38 39 40 41 41 41 41 45 51 56 55 53 52 52 53 54 53 52 53 54 53 51 50 48 47 48 48 48 48 49 50 49 46 42 40 40 41 41 38 37 38 38 37 38 39 39 41 44 45 44 42 40 38 37 37 36 37 37 37 37 36 34 32 32 31 30 28 28 29 30 31 32 32 32 32 32 32 33 33 34 34 33 32 30 29 28
38 40 42 43 44 45 45 44 47 53 58 57 55 54 55 56 56 55 55 56 56 53 52 50 49 49 49 48 49 51 51 50 49 47 44 43 45 45 42 40 40 40 39 40 41 42 42 44 46 47 46 44 42 41 40 39 37 38 38 38 38 37 35 34 33 31 30 30 31 31 31 31 31 31 31 31 30 31 32 33 34 34 33 32 31 30
31 34 38 42 44 45 47 48 48 50 54 59 60 58 57 57 58 58 57 57 57 56 54 53 53 52 51 50 51 54 53 50 49 48 47 47 48 49 46 44 43 43 42 42 43 44 43 43 45 48 47 46 45 44 43 42 41 40 40 41 40 40 38 37 36 34 32 32 31 30 29 29 29 29 29 29 28 29 30 31 32 32 33 33 33 32
25 26 29 34 39 41 43 47 50 50 51 55 61 63 61 60 60 60 59 59 59 58 58 57 56 56 54 53 55 56 55 52 51 50 49 49 51 52 51 49 47 46 44 43 44 45 44 43 45 48 49 48 47 46 45 45 44 43 43 42 42 41 41 40 39 37 35 33 31 29 28 27 26 26 27 28 29 29 29 28 29 30 32 33 34 34
22 23 24 26 30 33 36 42 49 51 50 53 58 63 66 65 62 62 63 62 61 60 60 60 59 59 59 57 57 58 57 55 53 52 51 51 53 55 56 54 51 49 48 47 46 46 45 43 44 47 50 49 48 48 48 47 47 46 45 44 43 42 40 40 39 37 36 36 32 29 27 25 24 25 26 28 29 30 29 28 28 30 31 33 34 35
21 23 24 25 27 28 30 35 42 48 50 52 55 60 65 68 67 65 64 64 64 62 62 63 63 62 62 60 60 61 60 58 56 54 53 53 53 53 56 58 56 55 53 51 50 50 50 47 44 46 49 50 50 51 51 50 50 49 48 46 44 41 39 39 39 35 32 33 31 28 27 26 25 26 26 28 30 30 30 29 29 30 32 33 34 35
20 22 24 25 27 28 28 29 34 40 46 50 53 56 61 66 70 70 68 66 67 65 64 65 66 65 65 64 63 63 63 61 59 57 56 56 55 53 53 58 60 60 60 57 54 53 54 51 48 47 49 51 52 52 52 51 50 49 48 47 44 41 40 40 40 35 31 30 29 27 27 27 27 27 27 28 30 31 31 31 31 32 33 34 34 35
19 21 23 25 27 28 29 27 27 32 39 42 43 49 56 61 67 73 74 70 69 68 67 67 68 68 68 67 66 66 66 64 62 61 59 58 58 56 54 56 61 65 64 61 57 56 55 53 52 52 52 52 52 51 50 49 49 49 48 46 44 42 41 41 40 37 35 33 31 30 29 29 29 29 28 27 28 30 32 33 33 34 34 34 35 35
22 22 23 24 26 27 29 29 27 28 32 33 34 40 48 55 60 69 75 76 73 71 70 70 70 70 70 71 69 68 68 67 64 63 62 60 60 60 57 56 57 61 64 63 59 57 56 54 53 53 53 53 53 51 49 49 49 48 46 45 43 42 42 43 41 39 37 36 35 34 32 31 30 30 29 28 27 28 32 34 35 36 36 35 35 35
24 25 25 25 25 26 28 29 28 28 31 32 31 33 39 47 53 61 70 76 77 75 73 72 72 72 72 73 73 71 71 71 68 65 64 64 63 62 62 60 55 53 59 64 61 58 57 55 53 52 53 54 53 51 51 49 47 45 45 43 42 41 41 44 44 40 38 38 38 36 34 32 32 32 30 29 29 29 32 34 36 37 37 36 36 36
28 27 27 26 26 25 26 28 29 30 32 33 32 32 34 40 47 55 63 72 77 79 78 76 75 75 74 75 77 76 75 74 72 69 66 66 66 65 66 67 60 51 55 62 61 59 59 58 55 54 53 53 52 51 50 49 46 45 45 44 42 41 41 44 45 42 40 41 40 38 35 34 34 34 32 31 31 32 33 34 36 38 38 37 37 37
28 27 26 26 25 24 25 26 28 29 31 32 33 34 34 38 44 50 56 64 72 79 83 81 79 77 77 77 79 81 79 77 75 74 70 68 69 69 69 70 66 57 56 59 58 58 60 59 56 55 54 53 51 50 50 49 48 46 45 44 45 44 44 44 45 44 43 43 42 40 39 38 38 37 35 32 32 33 34 34 36 37 39 39 39 38
22 23 24 24 24 23 22 23 24 25 27 29 31 32 34 36 40 43 47 55 64 74 81 85 84 81 79 79 80 82 82 80 78 77 75 72 71 72 73 72 69 64 62 60 56 56 60 61 57 54 54 54 53 52 51 50 48 47 46 46 47 47 46 45 45 45 46 45 44 43 42 41 42 40 38 35 34 34 35 35 35 36 38 39 39 39
16 18 20 21 21 21 20 19 19 20 23 25 27 29 31 33 35 37 40 46 55 65 74 82 86 86 83 80 80 82 83 83 81 79 79 77 75 74 75 75 73 70 69 66 59 53 55 59 59 56 54 54 54 53 53 50 46 43 42 44 46 47 47 46 45 47 48 47 46 46 46 45 44 41 39 38 38 37 36 36 34 34 36 38 39 40
13 14 15 16 18 17 16 16 17 18 20 24 26 27 29 30 31 32 35 39 46 57 67 75 82 87 87 85 83 83 84 85 84 82 81 81 79 77 76 76 75 74 73 72 66 57 51 53 57 58 57 55 54 54 53 51 47 42 39 41 44 46 47 47 46 46 48 49 47 48 49 48 45 41 39 39 40 40 38 37 36 35 35 37 38 39
13 12 12 13 14 14 13 15 16 17 19 22 25 27 29 30 32 32 33 34 39 48 59 68 75 82 87 89 87 86 86 86 86 85 85 84 83 81 79 78 77 76 74 73 71 66 58 53 54 58 59 58 57 56 56 53 49 45 42 42 45 44 43 43 42 41 45 50 49 48 50 49 45 41 40 39 41 42 41 39 39 38 37 37 37 37
13 13 12 12 12 12 13 15 16 16 18 20 23 25 27 29 31 33 34 34 36 40 49 60 69 76 82 87 90 90 89 89 89 88 88 88 87 85 83 81 79 78 77 74 72 72 69 62 57 57 59 62 61 59 58 56 52 48 45 45 47 45 40 39 38 36 39 48 51 49 48 48 45 43 41 40 42 44 45 44 43 41 40 38 37 36
13 13 13 13 12 11 12 14 15 16 18 19 20 22 24 27 30 32 34 35 36 37 41 49 60 69 76 81 86 90 92 92 92 92 90 89 90 90 88 86 83 81 80 78 75 74 73 71 65 60 58 60 61 60 59 59 56 52 48 45 47 47 43 40 37 34 35 44 50 50 48 47 45 44 42 41 42 45 48 49 47 44 42 40 39 38
12 13 13 13 13 13 12 12 12 14 17 19 20 22 23 25 28 31 34 36 38 38 39 42 49 60 69 75 80 86 90 93 94 95 93 90 90 92 92 91 88 85 83 81 79 77 75 74 72 67 62 58 57 58 60 61 59 55 50 48 48 49 47 44 41 37 37 42 47 49 48 46 45 44 43 41 41 43 45 47 47 45 43 42 41 40
12 12 13 13 14 14 13 12 12 13 15 17 18 20 22 25 27 30 33 36 39 40 42 42 44 49 58 67 74 80 85 90 93 95 94 91 90 92 93 93 92 90 88 85 82 80 78 76 74 72 69 63 59 57 57 58 57 54 52 52 52 51 49 48 45 41 40 42 46 47 48 47 46 44 43 43 42 42 43 45 46 45 43 42 42 41
13 13 12 13 13 14 14 14 13 14 15 16 17 17 19 21 24 28 32 36 39 41 43 45 46 47 50 56 65 72 79 85 90 93 94 92 90 91 92 92 92 92 91 89 86 82 81 80 78 75 72 69 66 62 58 56 55 54 52 53 54 53 51 51 50 46 43 44 47 48 49 49 48 46 45 45 44 43 43 43 43 43 42 41 41 41
Wind_Direction
222 221 220 218 215 213 210 205 202 205 207 209 211 213 215 213 207 203 202 201 194 189 190 186 185 186 178 173 173 174 175 176 191 212 220 221 214 213 216 220 223 218 204 196 201 209 209 204 205 203 190 184 188 186 182 182 182 180 178 177 176 173 172 173 173 172 171 172 172 166 163 161 158 158 157 157 158 154 156 158 155 148 139 132 129 131
222 220 217 214 213 212 210 205 204 207 208 209 211 213 216 217 216 211 206 206 198 183 182 185 187 188 182 177 172 169 171 169 179 218 232 228 220 218 220 223 223 219 213 202 199 209 214 206 204 206 193 186 191 190 187 186 187 184 181 178 176 174 174 175 175 176 175 176 175 170 168 166 163 164 161 160 162 160 158 156 153 148 139 133 132 133
222 220 217 216 215 213 211 208 209 211 212 213 212 209 209 211 217 216 210 209 201 186 185 187 187 190 188 183 176 172 173 169 173 210 237 235 226 223 221 224 222 208 198 195 188 202 219 212 201 201 198 195 196 196 192 189 191 188 183 179 176 175 176 177 176 179 179 177 175 172 169 167 163 163 158 157 163 160 155 155 154 150 142 137 137 136
221 219 219 219 218 215 213 210 211 213 214 215 214 207 202 205 213 215 212 214 207 195 193 192 192 195 194 188 181 178 177 171 173 199 231 237 232 226 221 223 219 199 190 191 182 190 215 221 207 199 203 204 198 197 194 190 194 192 185 181 177 175 177 179 178 180 180 175 174 171 165 163 161 160 157 155 161 159 157 157 155 151 143 139 141 141
218 218 219 219 218 216 214 211 212 214 213 213 209 203 202 204 209 211 212 216 214 206 202 200 199 200 202 196 185 182 182 173 174 198 220 231 233 227 219 220 216 199 189 189 184 184 201 219 215 203 205 206 198 195 193 191 193 195 189 184 179 175 177 181 180 179 177 173 171 165 158 160 163 164 162 160 162 162 160 157 153 149 143 141 143 145
219 220 220 219 219 219 218 215 214 214 213 211 200 193 200 202 203 207 212 217 218 213 209 210 207 204 209 207 195 191 188 178 182 204 217 224 229 223 213 209 206 200 193 188 186 184 193 211 216 206 205 208 204 198 197 196 193 196 194 187 180 177 177 179 179 177 176 173 170 167 166 168 170 172 168 161 161 163 160 156 153 149 145 146 148 151
222 223 222 220 220 220 220 218 216 215 214 210 193 185 195 197 198 206 213 218 219 213 210 213 211 205 209 211 206 203 196 186 187 202 213 217 222 220 211 204 199 200 201 194 189 185 190 209 216 208 203 209 211 203 200 201 196 194 197 190 184 180 178 178 178 176 176 176 175 176 177 176 173 172 167 160 159 161 160 158 156 153 152 154 155 158
223 224 222 221 220 220 219 218 217 217 215 209 191 186 192 194 197 207 214 219 222 215 211 211 209 207 206 203 204 205 203 195 189 199 215 213 213 215 212 207 203 206 211 204 191 180 181 199 213 210 204 208 214 207 200 202 199 194 196 192 188 184 180 178 179 177 176 180 184 184 183 179 172 169 167 164 161 160 161 162 160 157 157 159 160 161
223 224 223 222 222 221 220 218 216 215 212 206 194 189 192 194 198 207 214 219 223 220 214 210 210 210 206 201 203 205 206 202 188 193 216 213 206 207 208 210 212 216 215 204 193 182 178 186 199 209 209 209 213 210 202 202 201 197 194 193 191 188 184 179 181 181 179 185 191 189 184 179 173 169 167 165 163 162 164 165 163 160 161 164 165 164
222 224 223 224 224 223 222 221 219 216 210 206 199 192 192 196 199 206 213 217 221 223 219 215 215 214 211 212 213 211 212 207 187 189 210 215 207 202 204 209 213 217 213 203 197 190 184 185 193 202 208 209 208 212 208 200 200 199 196 193 192 191 188 183 183 184 185 189 194 193 186 180 175 171 168 166 164 164 166 168 166 164 165 169 172 171
220 222 222 224 224 223 223 224 222 219 212 209 206 197 192 196 199 204 211 216 220 222 221 221 219 216 214 216 217 214 212 200 183 193 208 214 209 202 202 206 209 211 207 202 195 186 184 190 199 204 209 211 209 215 218 204 196 197 197 196 195 194 191 186 186 187 189 191 195 194 188 183 180 176 173 169 167 168 169 171 172 171 170 174 179 179
218 219 219 221 222 222 224 225 223 221 216 214 212 205 197 196 200 204 209 214 219 221 221 223 223 219 213 211 213 209 196 181 177 203 215 212 208 204 201 201 204 207 206 202 196 187 184 190 203 212 216 219 217 218 223 215 199 193 196 199 198 196 193 190 189 190 190 193 196 194 189 188 186 182 179 174 173 174 174 176 178 178 177 179 184 185
218 217 217 218 220 220 221 224 224 222 218 216 216 213 206 199 200 205 209 214 219 221 222 223 226 227 217 209 211 209 199 194 197 226 234 228 221 214 208 204 200 202 206 205 202 200 198 194 197 207 215 221 225 221 217 218 209 195 193 197 199 198 195 194 193 192 192 194 196 194 192 192 189 187 186 181 178 178 179 180 183 185 186 186 188 190
218 217 216 217 219 219 218 220 223 223 221 218 215 216 214 207 203 205 210 215 218 220 223 226 229 233 228 215 212 215 215 215 212 214 228 236 230 222 218 214 208 203 203 207 208 206 206 203 196 195 204 211 217 218 211 212 215 204 194 194 199 200 198 196 195 194 193 195 196 194 194 195 192 191 191 187 183 181 182 185 187 189 192 192 193 195
220 217 215 217 219 219 218 218 220 223 225 222 218 217 216 214 210 208 210 215 217 217 221 226 228 233 235 226 217 218 221 217 207 200 210 222 225 224 222 222 224 218 208 206 209 207 205 205 200 194 197 203 210 215 210 207 214 213 202 196 198 201 200 198 197 196 196 198 197 194 195 197 195 194 194 191 186 184 185 187 188 190 192 194 196 198
222 217 215 218 220 220 220 218 218 221 223 223 221 219 216 214 213 212 211 213 215 216 219 223 226 230 233 231 224 220 221 218 208 204 210 218 224 225 219 219 231 233 221 209 205 207 207 206 204 199 197 201 208 213 213 209 212 217 212 203 199 200 201 199 197 197 198 201 199 195 195 199 199 196 197 195 191 190 190 188 188 190 192 194 197 200
220 217 216 218 219 221 222 220 219 219 221 223 223 221 220 219 216 213 212 213 214 215 217 220 225 229 231 231 228 223 223 221 213 209 213 219 227 225 219 219 223 229 233 221 208 204 207 206 203 201 199 201 207 212 215 214 214 216 216 210 203 200 201 201 198 197 199 201 202 199 196 199 202 199 199 199 196 196 196 192 190 190 190 192 196 200
219 219 218 217 217 220 222 221 218 217 219 223 225 223 222 222 221 217 215 214 215 216 217 217 220 226 229 229 228 225 224 223 218 214 214 218 226 226 222 223 221 216 226 231 220 210 207 206 201 198 197 199 205 210 212 213 215 216 215 214 209 202 200 202 201 199 198 199 201 202 200 200 203 204 202 203 202 201 200 198 194 191 189 192 195 197
217 217 217 216 215 218 222 222 217 215 217 221 224 224 222 220 221 220 219 219 218 217 218 216 215 221 226 228 228 225 224 224 223 220 217 219 224 226 224 220 214 209 213 225 231 221 211 206 203 200 199 200 205 211 214 214 216 216 214 214 213 206 202 203 204 201 198 198 200 203 203 202 204 207 206 205 207 207 206 205 202 196 194 195 195 195
216 215 215 216 215 216 220 221 216 215 217 217 219 222 221 220 220 219 219 221 222 222 221 218 215 217 222 225 226 225 224 223 223 222 220 222 223 222 222 216 208 208 209 212 225 224 211 205 205 205 204 204 206 212 218 218 219 219 216 213 212 211 207 205 206 205 201 198 199 202 205 204 204 208 209 207 206 209 212 211 209 206 202 199 198 198
217 216 214 214 214 215 218 219 217 215 216 216 217 219 219 220 221 221 220 219 220 222 223 222 220 218 219 222 223 224 225 223 222 222 222 223 222 220 218 214 210 209 208 207 214 218 207 200 202 207 207 206 207 212 217 218 218 219 217 211 209 211 211 207 208 210 207 203 201 202 203 205 205 207 210 210 206 208 213 215 215 214 210 206 204 203
216 217 214 212 214 214 215 218 218 216 214 214 216 218 218 219 221 222 222 221 218 219 220 222 223 221 219 221 221 222 224 224 222 221 220 221 220 217 215 213 212 212 211 209 211 215 208 198 199 207 209 208 209 212 217 218 217 217 215 211 207 207 209 208 207 209 210 208 205 204 204 205 206 207 209 210 208 207 211 214 215 217 216 215 213 210
215 214 212 210 212 214 215 218 219 216 215 214 214 217 219 220 221 221 223 224 221 219 217 217 220 222 221 223 221 218 219 219 215 212 215 220 219 215 213 212 209 212 216 215 212 214 215 209 206 208 209 209 209 211 215 218 216 216 216 213 206 203 204 206 206 207 209 209 206 205 206 206 206 207 208 209 209 209 211 212 213 213 214 217 219 217
215 211 207 206 210 214 215 217 220 219 218 216 215 217 219 220 221 220 222 225 224 220 216 212 215 219 219 221 220 215 211 209 206 207 213 219 219 216 214 211 206 208 214 215 210 209 214 217 216 213 210 208 207 209 213 216 215 214 216 214 207 204 204 205 205 205 207 209 209 207 206 206 206 207 207 208 210 211 213 214 213 210 209 213 218 219
217 213 207 203 206 211 213 215 218 218 218 217 216 216 217 218 219 218 218 221 223 221 217 212 213 215 214 216 217 211 207 206 207 209 212 215 216 216 212 206 202 204 209 211 206 204 208 211 212 211 209 207 206 207 209 212 213 213 214 214 210 208 209 209 207 205 204 207 209 210 209 209 208 207 207 208 209 211 214 217 217 213 210 212 215 218
223 219 212 205 204 207 209 211 214 215 215 215 215 215 216 216 216 216 215 217 219 220 218 214 214 213 210 213 215 208 203 205 205 206 210 211 212 212 210 205 204 204 206 207 205 202 203 203 201 200 200 200 201 203 204 206 208 210 212 214 214 213 213 214 211 208 205 205 208 210 210 211 211 211 210 210 210 211 213 216 218 217 215 213 213 216
230 226 219 212 207 206 207 210 213 214 213 214 214 214 216 216 216 216 216 216 217 219 219 217 216 213 208 210 214 209 203 204 206 207 209 208 205 206 208 208 208 209 207 207 205 202 201 200 198 196 194 194 196 198 200 201 203 205 208 211 215 217 216 216 215 212 208 207 207 208 210 210 210 212 214 213 213 213 213 214 215 217 218 217 215 215
237 234 230 223 215 210 209 210 212 213 213 214 214 215 216 217 217 217 218 218 217 218 219 220 219 214 209 210 213 211 206 205 208 209 206 203 202 204 207 208 208 209 210 208 207 203 200 199 198 196 194 194 195 197 199 199 199 201 203 206 210 214 216 216 215 213 210 208 207 207 208 209 208 209 212 215 216 215 214 214 214 214 216 218 217 216
243 241 237 234 227 218 213 212 212 213 214 215 215 215 216 217 217 217 218 218 217 216 219 222 222 217 212 212 214 214 210 205 205 206 202 200 202 203 206 207 206 208 209 210 209 206 202 201 200 198 197 197 198 200 200 200 201 202 202 204 207 208 211 212 212 210 209 208 207 206 207 208 208 208 210 213 216 217 216 216 216 216 215 216 218 218
248 246 243 240 237 229 220 216 215 216 216 216 216 216 216 217 217 216 216 217 217 216 217 220 222 220 216 213 214 215 214 209 206 205 203 203 204 204 205 207 207 209 211 212 212 210 206 204 203 202 200 200 200 202 203 203 205 205 204 205 206 206 207 208 207 207 207 205 205 206 207 208 209 210 210 212 214 216 217 217 218 218 218 217 217 218
251 250 247 245 242 238 230 223 219 218 218 217 217 217 217 217 217 216 216 217 216 215 215 217 220 220 218 214 213 214 216 215 211 208 207 207 207 207 208 209 209 211 214 215 216 216 211 208 207 207 206 204 204 206 208 208 207 207 208 209 208 207 207 206 203 204 205 205 205 206 208 208 209 211 213 213 215 217 218 218 218 219 219 219 219 220
256 254 251 249 246 243 238 231 225 221 220 219 218 218 218 218 218 217 217 217 216 215 215 216 217 218 217 214 211 211 214 216 212 209 210 210 207 206 208 210 210 210 213 216 217 218 216 213 211 211 211 209 208 210 212 213 211 210 210 211 211 211 210 206 204 204 204 205 207 207 207 208 209 211 214 215 217 219 221 222 221 221 221 221 222 222
262 259 256 253 250 248 244 238 232 226 222 220 219 219 220 219 219 218 218 218 217 215 214 213 214 215 215 213 211 209 209 212 210 208 209 209 206 206 207 211 213 212 212 214 216 217 218 217 215 214 214 213 211 212 214 214 214 213 212 212 212 213 213 209 205 204 204 206 208 208 207 207 208 210 212 214 217 221 224 226 226 225 225 224 224 225
265 263 261 257 253 252 249 243 237 231 225 222 221 220 220 220 219 218 219 219 218 216 214 213 213 215 215 213 212 209 208 209 208 206 207 207 207 207 207 210 214 213 211 211 213 215 218 219 218 217 216 215 213 212 214 214 215 215 215 215 214 215 217 215 209 204 204 205 207 207 206 206 206 207 209 211 214 218 223 226 228 229 229 228 228 228
265 264 265 263 258 255 252 248 241 234 229 226 224 221 221 220 219 218 218 219 219 218 216 214 213 214 215 214 213 212 210 210 209 207 206 206 207 208 208 209 213 214 212 212 213 214 216 218 219 218 217 216 215 213 213 213 214 215 215 216 216 217 220 221 216 208 204 203 204 205 205 203 201 202 205 208 211 214 218 221 225 227 229 230 230 230
265 265 264 264 263 260 257 252 244 237 233 231 227 223 222 221 220 218 217 218 220 220 218 216 214 215 215 214 214 214 213 211 211 210 207 206 209 210 209 209 212 215 215 215 215 214 216 218 219 220 219 218 217 215 214 214 214 215 215 216 218 219 221 223 223 218 210 206 205 205 205 203 201 201 203 205 208 211 214 218 221 224 226 228 229 229
266 267 266 264 263 262 261 258 249 240 236 234 231 227 224 222 221 220 218 218 219 220 219 217 215 215 216 216 214 215 216 214 212 212 209 207 209 212 210 209 212 214 215 217 217 215 217 218 218 219 219 219 219 217 216 216 216 215 216 216 217 219 221 221 221 221 219 216 213 210 210 210 208 205 205 205 206 207 211 215 219 222 225 226 227 228
272 270 269 267 265 262 261 260 255 246 240 237 236 233 229 225 222 221 219 218 218 219 219 219 217 216 217 217 216 215 217 217 215 213 212 209 209 212 212 209 211 214 215 215 217 218 218 219 218 217 218 219 220 219 217 219 220 217 215 215 216 219 222 220 217 216 219 221 218 214 214 216 216 214 211 210 208 208 209 212 216 220 223 224 225 226
277 277 275 273 269 265 261 258 255 252 246 242 239 237 234 229 226 223 221 219 218 219 218 219 219 217 217 218 218 216 217 218 217 215 214 212 209 210 212 210 211 214 215 214 217 219 219 218 217 217 217 218 219 221 220 221 222 220 215 213 215 218 221 220 216 213 216 219 219 217 216 217 221 222 218 214 213 211 211 212 215 219 221 223 223 224
277 278 278 277 274 270 265 260 254 252 250 246 241 238 238 235 230 226 223 219 219 220 219 218 218 219 219 219 219 218 217 219 219 218 216 215 211 209 211 213 212 213 213 213 216 219 219 218 216 216 217 217 217 219 221 223 224 221 216 214 215 218 220 219 217 215 216 218 218 219 220 221 223 225 222 217 216 216 214 214 216 219 221 223 224 224
281 278 277 278 276 272 267 263 256 250 250 249 243 238 238 239 236 230 225 220 219 220 221 220 219 218 218 220 221 220 218 218 220 219 218 216 214 211 211 214 216 215 211 209 213 217 218 218 218 218 219 219 217 217 219 223 224 221 219 219 219 218 218 218 217 217 218 218 217 218 221 223 226 227 226 221 219 220 220 218 218 220 221 223 224 225
282 280 278 278 277 273 268 265 259 252 249 249 245 237 234 239 240 234 227 223 220 220 220 222 222 219 218 219 221 222 220 218 219 220 220 218 216 214 213 215 217 217 210 207 210 215 217 219 220 220 221 221 219 216 217 221 223 222 222 223 223 221 219 219 220 220 221 220 218 216 217 220 224 227 229 228 226 226 226 224 222 222 223 224 225 226
281 281 281 280 279 276 272 269 264 256 250 247 244 238 234 237 242 240 234 228 224 222 221 222 223 223 221 219 220 222 223 221 219 220 221 221 219 217 215 217 218 216 213 212 211 211 214 219 221 221 222 221 219 217 217 221 223 224 224 225 225 225 223 223 223 223 222 221 219 218 217 218 220 224 228 231 232 232 231 231 229 226 226 226 227 228
291 284 283 283 281 279 278 277 270 259 250 245 241 238 236 238 242 244 242 236 229 225 223 222 223 224 224 221 220 221 222 222 221 220 221 223 223 220 218 218 219 218 217 219 218 214 212 215 219 222 222 221 220 218 216 216 219 223 225 225 226 227 226 225 226 225 223 221 219 218 218 219 220 221 225 230 232 232 232 233 234 232 230 229 229 230
312 298 288 285 284 283 281 278 273 261 250 244 240 237 236 239 241 243 244 242 236 231 227 225 224 224 225 223 221 221 222 223 222 222 222 223 225 224 221 220 220 221 221 222 222 220 214 211 214 219 220 220 220 218 214 214 217 223 226 227 229 230 228 226 227 229 227 223 220 218 219 220 221 221 224 228 229 228 227 230 234 234 232 232 232 232
330 323 310 299 292 289 281 273 271 266 256 249 245 242 240 241 242 242 242 243 241 236 232 228 226 226 226 225 223 222 223 224 223 222 222 223 225 226 226 223 222 222 223 223 223 223 219 213 212 216 218 220 220 218 217 219 221 224 228 230 230 230 228 223 226 231 229 223 220 219 218 219 221 222 223 225 225 223 223 227 232 234 233 233 233 233
328 331 330 323 313 300 285 275 270 267 263 259 254 251 248 245 244 243 241 241 241 240 237 233 230 228 227 227 225 223 223 225 226 224 222 222 224 226 228 227 225 225 225 224 223 223 221 219 216 215 217 220 223 222 222 224 225 227 231 232 229 228 227 224 226 233 229 220 216 216 217 218 220 220 220 220 221 221 221 224 229 233 234 234 234 234
325 327 330 331 331 322 303 287 277 270 267 265 261 257 254 250 248 246 244 242 242 241 240 237 234 231 229 229 228 226 224 225 227 228 226 223 222 224 227 228 228 227 226 226 224 223 222 221 220 219 217 217 220 222 224 226 229 233 235 232 228 227 229 227 226 229 226 217 214 216 217 217 216 217 217 219 222 223 223 224 227 230 233 235 235 234
329 328 328 326 327 327 319 307 295 284 278 273 268 264 259 254 250 248 247 246 244 243 242 241 238 235 232 231 230 229 226 225 227 229 229 227 224 224 226 228 228 228 228 228 226 224 223 222 222 223 222 218 216 219 223 226 231 235 234 230 226 226 227 226 224 224 222 217 214 216 217 216 215 215 216 219 221 222 223 223 224 227 231 234 234 234
331 330 330 327 324 322 319 315 309 300 292 286 279 272 266 260 254 251 249 248 247 245 244 243 242 240 236 234 232 231 229 227 227 228 230 230 227 225 225 227 228 228 229 229 228 226 225 224 223 225 226 225 221 220 222 226 231 234 232 228 226 224 223 222 221 221 222 220 218 218 218 218 218 217 217 218 220 221 221 222 224 226 229 231 232 232
322 326 329 329 327 324 319 314 309 304 299 297 293 286 279 272 265 257 251 248 247 246 245 244 243 243 241 238 236 234 232 230 228 228 229 230 229 227 226 227 227 228 229 229 229 228 227 226 225 225 227 228 228 225 224 226 229 231 230 228 225 223 222 221 220 220 222 223 222 221 220 220 221 221 220 220 220 221 221 222 224 226 227 228 230 231